Location: Rockford
(42.2710°N, 89.0940°W)
Time: 18:15:06
(UTC-06:00)

Daily predictions for brighter satellites

Satellite Brightness Start Highest point End
(mag) Time Altitude Azimuth Time Altitude Azimuth Time Altitude Azimuth
SL-16 R/B 2.3 17:57:24 10° NNW 18:03:07 89° WSW 18:08:47 10° SSE
Okean 2 Rocket 3.4 18:01:04 10° SSW 18:05:32 75° W 18:09:57 10° N
FREGAT/IRIS 3.8 18:03:23 10° SE 18:05:56 24° ENE 18:08:33 10° NNE
Cosmos 1340 3.5 18:02:42 10° NNE 18:06:04 29° ENE 18:09:25 10° SE
Cosmos 1709 Rocket 4.2 18:07:21 10° SSE 18:13:17 49° E 18:19:10 10° NNE
Cosmos 1484 Rocket 4.0 18:11:38 10° S 18:15:29 48° W 18:19:18 10° NNW
Meteor 1-18 Rocket 4.4 18:11:23 10° NNW 18:16:57 79° W 18:22:33 10° S
Cosmos 2322 Rocket 2.7 18:13:57 10° NNW 18:19:30 65° WSW 18:25:03 10° S
Meteor 1-28 Rocket 3.3 18:16:16 10° N 18:20:06 85° WNW 18:23:55 10° SSW
Cosmos 1954 Rocket 4.1 18:15:25 10° S 18:20:26 52° ESE 18:25:31 10° NNE
Tiangong 2 2.7 18:19:55 10° W 18:22:39 29° SSW 18:25:23 10° SE
HJ-1C 4.4 18:20:15 10° SE 18:23:06 26° ENE 18:25:59 10° NNE
Meteor 1-20 Rocket 4.4 18:18:16 10° S 18:24:05 84° W 18:29:59 10° N
SJ-6B 3.0 18:20:34 10° SSE 18:24:26 49° ENE 18:28:14 10° N
Cosmos 2151 Rocket 3.6 18:20:09 10° S 18:24:40 83° E 18:29:12 10° N
Genesis I 4.3 18:21:48 10° NNW 18:25:10 26° NE 18:28:05 12° E
Okean 1 Rocket 3.8 18:21:47 10° SSE 18:25:42 31° E 18:29:39 10° NNE
Meteor 1-19 Rocket 4.5 18:22:27 10° N 18:27:56 48° ENE 18:33:29 10° SSE
TSX-5 3.1 18:24:56 10° SSW 18:28:04 68° ESE 18:31:19 10° NNE
FENGYUN 3A 4.0 18:23:17 10° SE 18:28:21 43° ENE 18:33:26 10° N
Gbstr 26 Del rocket 3.1 18:30:34 10° SSW 18:34:13 41° SE 18:36:53 16° ENE
Cosmos 2322 3.8 18:30:09 10° NNW 18:35:50 60° ENE 18:41:27 10° SE
Cosmos 1238 Rocket 2.2 18:34:25 10° N 18:37:20 49° E 18:40:14 10° SSE
NOAA 12 4.2 18:34:05 10° SSE 18:39:24 83° WSW 18:44:46 10° NNW
Cosmos 1025 Rocket 3.9 18:40:59 10° NNE 18:44:49 29° ENE 18:48:39 10° SE
Meteor 1-13 Rocket 4.1 18:39:28 10° N 18:45:02 76° E 18:50:41 10° SSE
CZ-2D R/B 4.2 18:43:32 16° ESE 18:45:46 27° ENE 18:49:01 10° NNE
GEOS 3 Rocket 3.9 18:40:44 10° NE 18:45:48 47° ESE 18:50:52 10° SSW
H-2A R/B 3.1 18:47:30 10° SE 18:50:58 40° ENE 18:54:30 10° N
COSMOS 2428 3.1 18:45:42 10° NNW 18:51:07 43° ENE 18:55:38 14° SE
Okean 1-7 Rocket 3.9 18:46:46 10° N 18:51:08 45° ENE 18:55:26 10° SSE
Cosmos 1536 3.0 18:47:28 10° SSE 18:51:16 44° E 18:55:05 10° NNE
Cosmos 2237 4.3 18:45:49 10° NNW 18:51:26 54° ENE 18:57:01 10° SE
SL-19 R/B 4.4 18:48:03 10° SSE 18:53:38 63° ENE 18:59:36 10° N
Meteor 2-4 Rocket 3.7 18:48:37 10° N 18:54:05 56° ENE 18:59:23 10° SSE
Cosmos 2237 Rocket 3.6 18:50:53 10° N 18:54:47 18° NE 18:55:53 17° ENE
Cosmos 1633 2.7 18:52:00 10° SSW 18:55:41 75° W 18:59:23 10° N
Cosmos 1023 Rocket 4.4 18:51:38 10° SSW 18:56:43 85° ESE 19:01:53 10° NNE
Cosmos 1741 Rocket 4.0 18:58:48 10° S 19:03:55 59° ESE 19:09:03 10° NNE
Cosmos 2360 Rocket 2.6 19:04:44 10° NNW 19:10:20 65° WSW 19:15:55 10° S
Cosmos 2219 Rocket 2.8 19:06:56 10° N 19:12:06 36° ENE 19:13:36 31° E
Cosmos 2219 3.2 19:06:37 10° S 19:12:15 59° ESE 19:17:54 10° NNE
Cosmos 1570 Rocket 3.9 19:13:45 10° NNW 19:19:00 87° ENE 19:24:14 10° SSE
Meteor 1-11 Rocket 4.2 19:16:08 10° SSW 19:21:52 67° WNW 19:27:48 10° N
BREEZE-M DEB (TANK) 2.7 19:20:40 10° SW 19:23:46 48° S 19:23:46 48° S
Resurs 01 Rocket 1.9 19:22:18 10° S 19:26:40 66° WSW 19:31:04 10° NNW
Cosmos 1140 Rocket 4.3 19:22:22 10° SW 19:27:21 52° WNW 19:32:25 10° N
SL-16 R/B 4.0 19:24:50 10° N 19:27:20 15° NE 19:27:20 15° NE
Abrixas rocket 3.5 19:27:29 10° SW 19:29:39 33° SSW 19:29:39 33° SSW
BREEZE-M DEB (TANK) 3.6 19:28:42 10° WNW 19:32:04 79° NNE 19:35:01 36° ESE
ATLAS CENTAUR R/B 3.7 19:29:11 10° SSW 19:30:46 17° S 19:30:46 17° S
Spot 1 3.8 19:31:45 49° SSE 19:32:48 82° ENE 19:36:58 10° NNW
Cosmos 1610 Rocket 4.4 19:27:02 10° S 19:33:08 61° E 19:39:13 10° NNE
Cosmos 614 Rocket 4.5 19:30:03 10° SSW 19:35:02 58° WNW 19:40:03 10° NNE
ALOS 3.5 19:31:17 10° S 19:35:41 42° W 19:40:08 10° NNW
Cosmos 2327 Rocket 4.4 19:32:49 10° S 19:39:03 89° W 19:45:26 10° N
Cosmos 468 Rocket 4.2 19:34:24 10° N 19:39:27 50° ENE 19:39:27 50° ENE
Spot 2 Rocket 4.2 19:36:42 10° S 19:41:38 53° W 19:46:36 10° NNW
Helios 1A 2.9 19:40:55 55° S 19:41:48 84° W 19:45:59 10° NNW
Resurs 1-3 4.4 19:40:10 10° S 19:44:25 50° W 19:48:42 10° NNW
Cosmos 2333 Rocket 2.3 19:40:24 10° NNW 19:46:02 54° ENE 19:46:14 53° ENE
USA 229 DEB 3.7 19:44:35 10° NW 19:51:46 88° NE 19:54:33 42° SE
USA 229 3.7 19:44:41 10° NW 19:51:52 87° NE 19:54:36 43° SE
Cosmos 1980 4.0 19:48:18 10° NNW 19:53:09 47° NE 19:53:09 47° NE
Helios 1B rocket 2.8 19:49:44 10° N 19:54:33 58° SW 19:58:01 10° SSW
Envisat 3.1 19:58:42 60° NNE 19:58:42 60° NNE 20:02:59 10° N
Okean 2 3.9 19:54:24 10° NNW 19:58:14 60° WNW 19:58:14 60° WNW
ERS-1 Rocket 4.4 20:05:24 27° N 20:05:24 27° N 20:07:49 10° N
NOSS 3-1 (A) 4.3 19:57:12 10° NNW 20:04:20 46° NE 20:04:58 45° ENE
Cosmos 1892 Rocket 4.5 20:03:25 10° NNW 20:06:29 43° NNW 20:06:29 43° NNW
ATLAS 2AS CENTAUR R/B 4.4 20:03:05 10° NNW 20:09:17 23° NNE 20:10:18 23° NE
BREEZE-M DEB (TANK) 3.8 20:14:19 10° WNW 20:17:19 44° SW 20:17:19 44° SW
Nadezhda 3 Rocket 4.0 20:14:40 10° N 20:20:50 79° W 20:21:25 72° SSW
NOSS 3-1 (C) 3.9 20:16:34 10° NNW 20:24:06 69° NE 20:24:22 69° ENE
Cosmos 2154 Rocket 4.3 20:24:16 10° SSW 20:30:34 66° W 20:36:54 10° N
COSMOS 2428 4.4 20:30:23 10° NW 20:35:09 28° WSW 20:37:45 20° SW
Cosmos 2237 Rocket 3.0 20:33:49 10° NNW 20:37:45 46° NW 20:37:45 46° NW
Cosmos 2219 Rocket 3.6 20:50:59 10° NW 20:55:21 33° W 20:55:21 33° W
SL-16 R/B 4.2 21:07:25 10° NNW 21:09:14 21° NNW 21:09:14 21° NNW
Cosmos 2333 Rocket 4.4 21:25:30 10° NW 21:28:17 20° WNW 21:28:17 20° WNW
ATLAS 2AS CENTAUR R/B 4.5 21:53:57 10° NNW 21:57:45 30° NNW 21:57:45 30° NNW
